When you browse on this site, cookies collect data to enhance your experience and personalize the content and advertising you see.
Visit our Privacy Policy to learn more. By continuing to use the site, you agree to this use of cookies and data.
  • In France
  • List of Countries
  • For 7 days
  • Water Temperature
  • Satellite Maps
  • Weather Map
  • Weather Widgets
  • user-avatar
    Login

    Hourly Weather Speshnevo

    Today, 23 April, Tuesday

    Time Temperature Precipitation Wind Pressure Humidity
    00:00 +11°C° 0 mm 1 mps 747 mmHg 50%
    01:00 +11°C° 0 mm 1 mps 747 mmHg 50%
    02:00 +10°C° 0 mm 0 mps 747 mmHg 51%
    03:00 +10°C° 0 mm 1 mps 747 mmHg 52%
    04:00 +10°C° 0 mm 1 mps 747 mmHg 53%
    05:00 +10°C° 0 mm 1 mps 747 mmHg 55%
    06:00 +11°C° 0 mm 1 mps 747 mmHg 51%
    07:00 +13°C° 0 mm 2 mps 747 mmHg 48%
    08:00 +14°C° 0 mm 2 mps 748 mmHg 45%
    09:00 +16°C° 0 mm 2 mps 747 mmHg 41%
    10:00 +17°C° 0 mm 2 mps 747 mmHg 37%
    11:00 +18°C° 0 mm 3 mps 747 mmHg 33%
    12:00 +18°C° 0 mm 3 mps 747 mmHg 33%
    13:00 +19°C° 0 mm 3 mps 747 mmHg 34%
    14:00 +19°C° 0 mm 3 mps 747 mmHg 35%
    15:00 +19°C° 0 mm 3 mps 747 mmHg 37%
    16:00 +18°C° 0 mm 3 mps 747 mmHg 39%
    17:00 +18°C° 0 mm 3 mps 747 mmHg 41%
    18:00 +17°C° 0 mm 3 mps 746 mmHg 45%
    19:00 +15°C° 0 mm 2 mps 746 mmHg 49%
    20:00 +14°C° 0 mm 2 mps 746 mmHg 53%
    21:00 +13°C° 0 mm 2 mps 747 mmHg 55%
    22:00 +13°C° 0 mm 2 mps 747 mmHg 57%
    23:00 +12°C° 0 mm 2 mps 747 mmHg 59%

    Tomorrow, 24 April, Wednesday

    Time Temperature Precipitation Wind Pressure Humidity
    00:00 +12°C° 0 mm 2 mps 747 mmHg 60%
    01:00 +12°C° 0 mm 2 mps 747 mmHg 62%
    02:00 +10°C° 0 mm 2 mps 747 mmHg 63%
    03:00 +10°C° 0 mm 2 mps 747 mmHg 66%
    04:00 +9°C° 0 mm 2 mps 747 mmHg 68%
    05:00 +9°C° 0 mm 2 mps 747 mmHg 71%
    06:00 +11°C° 0 mm 3 mps 747 mmHg 66%
    07:00 +12°C° 0 mm 3 mps 747 mmHg 61%
    08:00 +14°C° 0 mm 3 mps 747 mmHg 56%
    09:00 +17°C° 0 mm 3 mps 747 mmHg 50%
    10:00 +18°C° 0 mm 4 mps 747 mmHg 45%
    11:00 +19°C° 0 mm 4 mps 747 mmHg 39%
    12:00 +20°C° 0 mm 4 mps 747 mmHg 38%
    13:00 +21°C° 0 mm 4 mps 747 mmHg 37%
    14:00 +21°C° 0 mm 4 mps 747 mmHg 36%
    15:00 +21°C° 0 mm 3 mps 747 mmHg 38%
    16:00 +20°C° 0 mm 3 mps 747 mmHg 40%
    17:00 +20°C° 0 mm 3 mps 746 mmHg 42%
    18:00 +19°C° 0 mm 2 mps 746 mmHg 46%
    19:00 +17°C° 0 mm 2 mps 746 mmHg 50%
    20:00 +15°C° 0 mm 2 mps 746 mmHg 53%
    21:00 +15°C° 0 mm 2 mps 747 mmHg 55%
    22:00 +14°C° 0 mm 2 mps 747 mmHg 56%
    23:00 +13°C° 0 mm 2 mps 747 mmHg 58%

    Day after tomorrow, 25 April, Thursday

    Time Temperature Precipitation Wind Pressure Humidity
    00:00 +13°C° 0 mm 2 mps 747 mmHg 60%
    01:00 +13°C° 0 mm 2 mps 747 mmHg 61%
    02:00 +12°C° 0 mm 2 mps 747 mmHg 63%
    03:00 +12°C° 0 mm 2 mps 747 mmHg 65%
    04:00 +12°C° 0 mm 2 mps 747 mmHg 66%
    05:00 +10°C° 0 mm 2 mps 747 mmHg 68%
    06:00 +13°C° 0 mm 2 mps 747 mmHg 63%
    07:00 +15°C° 0 mm 2 mps 747 mmHg 58%
    08:00 +17°C° 0 mm 2 mps 747 mmHg 53%
    09:00 +18°C° 0 mm 2 mps 747 mmHg 49%
    10:00 +19°C° 0 mm 2 mps 747 mmHg 44%
    11:00 +21°C° 0 mm 2 mps 747 mmHg 40%
    12:00 +21°C° 0 mm 2 mps 747 mmHg 39%
    13:00 +23°C° 0 mm 2 mps 747 mmHg 37%
    14:00 +23°C° 0 mm 2 mps 746 mmHg 35%
    15:00 +23°C° 0 mm 2 mps 746 mmHg 37%
    16:00 +23°C° 0 mm 2 mps 746 mmHg 39%
    17:00 +23°C° 0 mm 2 mps 746 mmHg 41%
    18:00 +21°C° 0 mm 1 mps 746 mmHg 45%
    19:00 +19°C° 0 mm 1 mps 745 mmHg 49%
    20:00 +18°C° 0 mm 1 mps 745 mmHg 53%
    21:00 +16°C° 0 mm 1 mps 745 mmHg 55%
    22:00 +16°C° 0 mm 1 mps 745 mmHg 57%
    23:00 +15°C° 0 mm 1 mps 745 mmHg 59%

    26 April, Friday

    Time Temperature Precipitation Wind Pressure Humidity
    00:00 +14°C° 0.3 mm 1 mps 745 mmHg 61%
    01:00 +14°C° 0.3 mm 1 mps 745 mmHg 63%
    02:00 +13°C° 0.3 mm 1 mps 745 mmHg 65%
    03:00 +13°C° 0.3 mm 1 mps 745 mmHg 66%
    04:00 +13°C° 0.3 mm 1 mps 745 mmHg 67%
    05:00 +13°C° 0.3 mm 1 mps 745 mmHg 68%
    06:00 +14°C° 0 mm 1 mps 745 mmHg 63%
    07:00 +16°C° 0 mm 1 mps 745 mmHg 59%
    08:00 +18°C° 0 mm 1 mps 745 mmHg 55%
    09:00 +19°C° 0 mm 1 mps 745 mmHg 52%
    10:00 +18°C° 0 mm 2 mps 745 mmHg 50%
    11:00 +19°C° 0 mm 2 mps 745 mmHg 47%
    12:00 +20°C° 0 mm 2 mps 745 mmHg 45%
    13:00 +21°C° 0 mm 3 mps 745 mmHg 42%
    14:00 +21°C° 0 mm 3 mps 744 mmHg 40%
    15:00 +21°C° 0.1 mm 3 mps 744 mmHg 43%
    16:00 +20°C° 0.1 mm 2 mps 744 mmHg 47%
    17:00 +20°C° 0.1 mm 2 mps 743 mmHg 50%
    18:00 +18°C° 0.9 mm 2 mps 743 mmHg 57%
    19:00 +17°C° 0.9 mm 2 mps 743 mmHg 64%
    20:00 +15°C° 0.9 mm 2 mps 743 mmHg 71%
    21:00 +15°C° 0.2 mm 2 mps 743 mmHg 73%
    22:00 +14°C° 0.2 mm 2 mps 743 mmHg 75%
    23:00 +14°C° 0.2 mm 2 mps 743 mmHg 77%

    27 April, Saturday

    Time Temperature Precipitation Wind Pressure Humidity
    00:00 +13°C° 0 mm 2 mps 742 mmHg 78%
    01:00 +13°C° 0 mm 2 mps 742 mmHg 78%
    02:00 +13°C° 0 mm 1 mps 742 mmHg 79%
    03:00 +13°C° 0 mm 2 mps 742 mmHg 79%
    04:00 +13°C° 0 mm 2 mps 742 mmHg 80%
    05:00 +13°C° 0 mm 2 mps 741 mmHg 80%
    06:00 +14°C° 0 mm 2 mps 741 mmHg 75%
    07:00 +16°C° 0 mm 3 mps 741 mmHg 69%
    08:00 +18°C° 0 mm 3 mps 741 mmHg 64%
    09:00 +19°C° 0 mm 4 mps 741 mmHg 58%
    10:00 +20°C° 0 mm 4 mps 741 mmHg 52%
    11:00 +21°C° 0 mm 4 mps 740 mmHg 46%
    12:00 +21°C° 0 mm 4 mps 740 mmHg 47%
    13:00 +21°C° 0 mm 4 mps 740 mmHg 49%
    14:00 +21°C° 0 mm 4 mps 739 mmHg 50%
    15:00 +20°C° 0 mm 4 mps 739 mmHg 52%
    16:00 +20°C° 0 mm 3 mps 738 mmHg 54%
    17:00 +20°C° 0 mm 3 mps 738 mmHg 56%
    18:00 +18°C° 0 mm 3 mps 738 mmHg 61%
    19:00 +17°C° 0 mm 3 mps 738 mmHg 66%
    20:00 +14°C° 0 mm 3 mps 738 mmHg 72%
    21:00 +14°C° 0 mm 3 mps 737 mmHg 75%
    22:00 +13°C° 0 mm 3 mps 737 mmHg 78%
    23:00 +12°C° 0 mm 3 mps 737 mmHg 82%

    28 April, Sunday

    Time Temperature Precipitation Wind Pressure Humidity
    00:00 +12°C° 0.4 mm 3 mps 737 mmHg 84%
    01:00 +12°C° 0.4 mm 3 mps 736 mmHg 85%
    02:00 +12°C° 0.4 mm 3 mps 736 mmHg 87%
    03:00 +12°C° 0.6 mm 4 mps 736 mmHg 87%
    04:00 +12°C° 0.6 mm 4 mps 736 mmHg 87%
    05:00 +12°C° 0.6 mm 5 mps 735 mmHg 87%
    06:00 +13°C° 0.8 mm 5 mps 735 mmHg 86%
    07:00 +13°C° 0.8 mm 4 mps 735 mmHg 84%
    08:00 +13°C° 0.8 mm 4 mps 735 mmHg 83%
    09:00 +14°C° 0.1 mm 4 mps 735 mmHg 77%
    10:00 +16°C° 0.1 mm 5 mps 735 mmHg 72%
    11:00 +17°C° 0.1 mm 5 mps 735 mmHg 66%
    12:00 +19°C° 0 mm 6 mps 735 mmHg 62%
    13:00 +20°C° 0 mm 6 mps 735 mmHg 58%
    14:00 +21°C° 0 mm 6 mps 735 mmHg 54%
    15:00 +21°C° 0.1 mm 5 mps 734 mmHg 57%
    16:00 +20°C° 0.1 mm 4 mps 734 mmHg 60%
    17:00 +20°C° 0.1 mm 3 mps 734 mmHg 63%
    18:00 +18°C° 0.1 mm 3 mps 734 mmHg 67%
    19:00 +17°C° 0.1 mm 3 mps 734 mmHg 71%
    20:00 +16°C° 0.1 mm 2 mps 734 mmHg 75%
    21:00 +15°C° 0 mm 2 mps 734 mmHg 76%
    22:00 +15°C° 0 mm 2 mps 734 mmHg 76%
    23:00 +15°C° 0 mm 2 mps 734 mmHg 77%
    Show more